Sauk Centre, MN

11:59 PM CST on December 13, 2019 (GMT -0600)
Sauk Centre

Weather History for KD39 - September, 2019

Change the Weather History Date:

Monday, September 16, 2019

  Actual Average (WUND) Record (WUND)
Temperature  
Mean Temperature 71 °F -  
Max Temperature 83 °F - - (-1)
Min Temperature 59 °F - - (-1)
Cooling Degree Days 6    
Growing Degree Days 21 (Base 50)    
Moisture  
Dew Point 67 °F    
Average Humidity 87    
Maximum Humidity 99    
Minimum Humidity 70    
Precipitation  
Precipitation 0.00 in - - ()
Sea Level Pressure  
Sea Level Pressure 29.96 in    
Wind  
Wind Speed 8 mph ()    
Max Wind Speed 20 mph    
Max Gust Speed 25 mph    
Visibility 10.0 miles    
Events      
Averages and records for this station are not official NWS values.
T = Trace of Precipitation, MM = Missing Value Source: Averaged Metar Reports

Daily Weather History Graph

Daily Weather History Graph

Search for Another Location

Airport or City:

Astronomy

Sep. 16, 2019 Rise Set
Actual Time 6:59 AM CDT 7:29 PM CDT
Civil Twilight 6:29 AM CDT 7:59 PM CDT
Nautical Twilight 5:53 AM CDT 8:34 PM CDT
Astronomical Twilight 5:17 AM CDT 9:10 PM CDT
Moon 8:58 PM CDT (9/16) 9:11 AM CDT (9/16)
Length of Visible Light 13h 29m
Length of Day
12h 30m
Waning Gibbous, 94% of the Moon is Illuminated
Sep 16
Waning Gibbous
Sep 21
Last Quarter
Sep 28
New
Oct 5
First Quarter
Oct 13
Full

Hourly Weather History & Observations

Time (CDT) Temp. Heat Index Dew Point Humidity Pressure Visibility Wind Dir Wind Speed Gust Speed Precip Events Conditions
12:16 AM 63.7 °F - 63.5 °F 99% 29.99 in 10.0 mi SSE 4.6 mph - N/A   Clear
12:35 AM 63.5 °F - 63.1 °F 99% 29.99 in 10.0 mi SSE 4.6 mph - N/A   Clear
12:55 AM 62.6 °F - 62.2 °F 99% 29.99 in 10.0 mi SSE 5.8 mph - N/A   Clear
12:56 AM 62.6 °F - 62.2 °F 99% 29.99 in 10.0 mi SSE 5.8 mph - N/A   Clear
1:15 AM 62.1 °F - 61.7 °F 99% 29.99 in 10.0 mi SE 6.9 mph - N/A   Clear
1:16 AM 62.1 °F - 61.7 °F 99% 29.99 in 10.0 mi SSE 6.9 mph - N/A   Clear
1:38 AM 63.0 °F - 62.1 °F 97% 29.99 in 10.0 mi SSE 4.6 mph - N/A   Clear
1:57 AM 62.4 °F - 61.5 °F 97% 29.99 in 10.0 mi SE 4.6 mph - N/A   Clear
2:15 AM 61.5 °F - 60.4 °F 96% 29.99 in 10.0 mi SE 4.6 mph - N/A   Clear
2:16 AM 61.3 °F - 60.3 °F 96% 29.99 in 10.0 mi SE 5.8 mph - N/A   Clear
2:36 AM 61.0 °F - 60.1 °F 97% 29.99 in 10.0 mi SE 4.6 mph - N/A   Clear
2:55 AM 61.0 °F - 60.1 °F 97% 29.99 in 10.0 mi SE 5.8 mph - N/A   Clear
3:00 AM 61.0 °F - 60.3 °F 97% 29.99 in 10.0 mi SE 5.8 mph - N/A   Clear
3:17 AM 62.1 °F - 60.8 °F 96% 29.99 in 10.0 mi SE 6.9 mph - N/A   Clear
3:37 AM 62.1 °F - 60.8 °F 96% 29.99 in 10.0 mi SE 6.9 mph - N/A   Clear
3:56 AM 61.5 °F - 60.1 °F 95% 29.99 in 10.0 mi SE 5.8 mph - N/A   Clear
4:15 AM 61.7 °F - 60.1 °F 94% 29.99 in 10.0 mi SE 6.9 mph - N/A   Clear
4:16 AM 61.7 °F - 60.1 °F 94% 29.99 in 10.0 mi SE 6.9 mph - N/A   Clear
4:35 AM 61.3 °F - 59.9 °F 95% 29.99 in 10.0 mi SE 5.8 mph - N/A   Clear
4:36 AM 61.3 °F - 59.9 °F 95% 29.99 in 10.0 mi SE 4.6 mph - N/A   Clear
4:59 AM 59.9 °F - 59.0 °F 97% 29.99 in 10.0 mi SE 4.6 mph - N/A   Clear
5:18 AM 60.4 °F - 59.4 °F 96% 29.99 in 10.0 mi SE 6.9 mph - N/A   Clear
5:35 AM 61.2 °F - 59.9 °F 96% 29.98 in 10.0 mi SE 6.9 mph - N/A   Clear
5:55 AM 60.1 °F - 59.0 °F 96% 29.99 in 10.0 mi SSE 4.6 mph - N/A   Clear
6:15 AM 59.5 °F - 58.8 °F 97% 29.99 in 10.0 mi SE 5.8 mph - N/A   Clear
6:19 AM 59.9 °F - 59.2 °F 97% 29.99 in 10.0 mi SE 5.8 mph - N/A   Clear
6:38 AM 61.0 °F - 59.9 °F 96% 29.99 in 10.0 mi SE 8.1 mph - N/A   Clear
6:55 AM 61.2 °F - 60.3 °F 97% 29.99 in 10.0 mi SE 6.9 mph - N/A   Clear
7:16 AM 61.7 °F - 60.8 °F 97% 29.99 in 10.0 mi SE 5.8 mph - N/A   Clear
7:35 AM 62.1 °F - 61.0 °F 96% 29.99 in 10.0 mi SE 5.8 mph - N/A   Clear
7:55 AM 63.5 °F - 62.1 °F 95% 29.99 in 10.0 mi SE 8.1 mph - N/A   Clear
7:59 AM 63.7 °F - 62.2 °F 95% 29.99 in 10.0 mi SE 8.1 mph - N/A   Clear
8:17 AM 64.9 °F - 63.0 °F 93% 29.99 in 10.0 mi SSE 8.1 mph - N/A   Clear
8:36 AM 66.2 °F - 63.5 °F 91% 29.99 in 10.0 mi SSE 8.1 mph - N/A   Clear
8:55 AM 68.0 °F - 64.4 °F 88% 29.98 in 10.0 mi SE 8.1 mph - N/A   Clear
9:15 AM 68.2 °F - 64.4 °F 88% 29.98 in 10.0 mi SSE 10.4 mph - N/A   Clear
9:19 AM 68.2 °F - 64.4 °F 88% 29.98 in 10.0 mi SSE 9.2 mph - N/A   Clear
9:55 AM 71.4 °F - 66.6 °F 85% 29.98 in 10.0 mi SSE 10.4 mph - N/A   Clear
10:15 AM 73.4 °F - 67.6 °F 82% 29.98 in 10.0 mi SSE 11.5 mph - N/A   Clear
10:16 AM 73.4 °F - 67.6 °F 82% 29.98 in 10.0 mi SSE 11.5 mph - N/A   Clear
10:35 AM 74.8 °F - 68.2 °F 80% 29.97 in 10.0 mi SSE 12.7 mph 18.4 mph N/A   Clear
10:36 AM 74.8 °F - 68.4 °F 80% 29.97 in 10.0 mi SSE 13.8 mph 18.4 mph N/A   Clear
10:58 AM 76.3 °F - 69.1 °F 78% 29.97 in 10.0 mi SSE 16.1 mph 19.6 mph N/A   Clear
11:17 AM 77.4 °F - 69.6 °F 77% 29.97 in 10.0 mi SSE 15.0 mph 19.6 mph N/A   Clear
11:36 AM 78.8 °F - 70.0 °F 74% 29.96 in 10.0 mi South 18.4 mph 23.0 mph N/A   Clear
11:55 AM 80.1 °F 83.4 °F 70.7 °F 73% 29.96 in 10.0 mi SSE 17.3 mph 23.0 mph N/A   Clear
11:56 AM 80.1 °F 83.4 °F 70.7 °F 73% 29.96 in 10.0 mi SSE 16.1 mph 23.0 mph N/A   Clear
12:15 PM 79.5 °F - 70.3 °F 73% 29.96 in 10.0 mi South 17.3 mph 25.3 mph N/A   Clear
12:19 PM 79.9 °F - 70.7 °F 73% 29.96 in 10.0 mi South 16.1 mph 24.2 mph N/A   Clear
12:37 PM 81.1 °F 85.2 °F 71.4 °F 72% 29.95 in 10.0 mi South 15.0 mph 23.0 mph N/A   Clear
12:56 PM 81.5 °F 85.5 °F 71.1 °F 70% 29.95 in 10.0 mi South 17.3 mph - N/A   Clear
1:15 PM 81.7 °F 85.8 °F 71.1 °F 70% 29.95 in 10.0 mi SSE 15.0 mph - N/A   Clear
1:16 PM 81.7 °F 86.0 °F 71.4 °F 71% 29.95 in 10.0 mi SSE 16.1 mph - N/A   Clear
1:35 PM 81.5 °F 86.1 °F 72.0 °F 73% 29.94 in 10.0 mi SSE 15.0 mph - N/A   Clear
1:58 PM 82.2 °F 87.1 °F 71.8 °F 71% 29.93 in 10.0 mi South 19.6 mph 23.0 mph N/A   Clear
2:17 PM 82.0 °F 86.7 °F 72.0 °F 71% 29.93 in 10.0 mi SSE 17.3 mph 25.3 mph N/A   Clear
2:36 PM 81.7 °F 86.3 °F 71.8 °F 72% 29.93 in 10.0 mi SSE 18.4 mph 21.9 mph N/A   Clear
2:55 PM 81.7 °F 86.7 °F 72.5 °F 74% 29.93 in 10.0 mi SSE 16.1 mph 21.9 mph N/A   Clear
2:56 PM 81.9 °F 87.0 °F 72.7 °F 74% 29.93 in 10.0 mi SSE 15.0 mph 21.9 mph N/A   Clear
3:15 PM 83.1 °F 88.9 °F 72.9 °F 71% 29.93 in 10.0 mi SSE 15.0 mph 23.0 mph N/A   Clear
3:37 PM 82.6 °F 88.1 °F 72.7 °F 72% 29.93 in 10.0 mi SSE 16.1 mph 20.7 mph N/A   Clear
3:56 PM 81.5 °F 86.1 °F 72.1 °F 73% 29.93 in 10.0 mi SSE 18.4 mph - N/A   Clear
4:15 PM 81.9 °F 87.0 °F 72.9 °F 74% 29.92 in 10.0 mi SE 16.1 mph - N/A   Clear
4:16 PM 81.9 °F 87.0 °F 72.9 °F 74% 29.92 in 10.0 mi SSE 13.8 mph - N/A   Clear
4:35 PM 83.7 °F 89.7 °F 72.9 °F 70% 29.92 in 10.0 mi SSE 16.1 mph 25.3 mph N/A   Clear
4:58 PM 82.8 °F 88.4 °F 72.9 °F 72% 29.92 in 10.0 mi SSE 18.4 mph 23.0 mph N/A   Clear
5:16 PM 81.9 °F 87.3 °F 73.4 °F 75% 29.92 in 10.0 mi SSE 13.8 mph - N/A   Clear
5:36 PM 81.7 °F 86.9 °F 73.2 °F 75% 29.92 in 10.0 mi SSE 12.7 mph 20.7 mph N/A   Clear
5:55 PM 81.7 °F 86.7 °F 72.7 °F 74% 29.92 in 10.0 mi SSE 19.6 mph 24.2 mph N/A   Clear
5:56 PM 81.7 °F 86.7 °F 72.5 °F 74% 29.92 in 10.0 mi SSE 16.1 mph 24.2 mph N/A   Clear
6:15 PM 80.6 °F 85.0 °F 72.9 °F 77% 29.92 in 10.0 mi SSE 13.8 mph - N/A   Clear
6:38 PM 79.0 °F - 71.6 °F 78% 29.92 in 10.0 mi SSE 16.1 mph 21.9 mph N/A   Clear
6:58 PM 77.5 °F - 71.6 °F 82% 29.92 in 10.0 mi SSE 11.5 mph 16.1 mph N/A   Clear
7:16 PM 76.8 °F - 71.6 °F 84% 29.92 in 10.0 mi SSE 10.4 mph - N/A   Clear
7:36 PM 75.6 °F - 71.4 °F 87% 29.92 in 10.0 mi SSE 9.2 mph - N/A   Clear
7:55 PM 75.2 °F - 71.2 °F 87% 29.93 in 10.0 mi SSE 8.1 mph - N/A   Clear
7:56 PM 75.2 °F - 71.2 °F 87% 29.93 in 10.0 mi SSE 6.9 mph - N/A   Clear
8:15 PM 74.5 °F - 71.2 °F 90% 29.93 in 10.0 mi SSE 6.9 mph - N/A   Clear
8:19 PM 74.5 °F - 71.2 °F 90% 29.93 in 10.0 mi SSE 6.9 mph - N/A   Clear
8:37 PM 73.4 °F - 71.2 °F 93% 29.93 in 10.0 mi SE 5.8 mph - N/A   Clear
8:56 PM 73.8 °F - 72.0 °F 94% 29.94 in 10.0 mi SSE 8.1 mph - N/A   Clear
9:15 PM 73.8 °F - 72.0 °F 94% 29.93 in 10.0 mi SSE 9.2 mph - N/A   Clear
9:35 PM 73.8 °F - 72.0 °F 94% 29.93 in 10.0 mi SSE 9.2 mph - N/A   Clear
9:55 PM 73.4 °F - 71.6 °F 94% 29.93 in 10.0 mi SSE 10.4 mph - N/A   Clear
9:56 PM 73.4 °F - 71.6 °F 94% 29.93 in 10.0 mi SSE 10.4 mph - N/A   Clear
10:19 PM 73.4 °F - 71.6 °F 94% 29.94 in 10.0 mi SSE 9.2 mph - N/A   Clear
10:36 PM 72.9 °F - 71.1 °F 94% 29.94 in 10.0 mi SSE 9.2 mph - N/A   Clear
10:56 PM 72.7 °F - 70.7 °F 93% 29.94 in 10.0 mi SSE 8.1 mph - N/A   Clear
11:15 PM 72.7 °F - 70.7 °F 93% 29.94 in 10.0 mi SSE 8.1 mph - N/A   Clear
11:16 PM 72.7 °F - 70.7 °F 93% 29.94 in 10.0 mi SSE 9.2 mph - N/A   Clear
11:35 PM 72.9 °F - 70.5 °F 92% 29.94 in 10.0 mi SSE 8.1 mph - N/A   Clear
11:37 PM 72.9 °F - 70.3 °F 92% 29.94 in 10.0 mi SSE 9.2 mph - N/A   Clear
11:58 PM 73.4 °F - 70.5 °F 91% 29.93 in 10.0 mi South 9.2 mph - N/A   Clear